Regional Weather Roundup
Issued by NWS Huntsville, AL

Current Version | Previous Version | Text Only | Print | Product List | Glossary On
Versions: 1 2 3 4 5 6 7 8 9 10 11 12 13 14 15 16 17 18 19 20 21 22 23 24 25 26 27 28 29 30 31 32 33 34 35 36 37 38 39 40 41 42 43 44 45 46 47 48 49 50
000
ASUS44 KHUN 201310
RWRHUN

WEATHER ROUNDUP FOR THE TENNESSEE VALLEY
NATIONAL WEATHER SERVICE HUNTSVILLE AL
800 AM CDT MON OCT 20 2014

ALZ001>004-201400-
NORTHWEST ALABAMA

CITY           SKY/WX    TMP DP  RH WIND       PRES   REMARKS
COURTLAND HCN    N/A     43 N/A N/A CALM        N/A
RUSSELLVILLE     N/A     39 N/A N/A MISG        N/A
SHOALS AIRPORT FOG       45  45 100 CALM      30.12R VSB 1/2
SHOALS TVA RES   N/A     46 N/A N/A MISG        N/A
$$

ALZ005>007-016-201400-
NORTH CENTRAL ALABAMA

CITY           SKY/WX    TMP DP  RH WIND       PRES   REMARKS
CULLMAN AG STN   N/A     43 N/A N/A CALM        N/A
DECATUR AP     SUNNY     46  44  93 CALM      30.12R
HUNTSVILLE AP  MOSUNNY   50  47  89 CALM      30.11R
MERIDIANVILLE  MOSUNNY   43  39  87 CALM      30.12R
REDSTONE ARSN  MOSUNNY   46  45  93 CALM      30.12
VINEMONT AP    FAIR      44  44  98 CALM      30.12R
$$

ALZ008>010-201400-
NORTHEAST ALABAMA

CITY           SKY/WX    TMP DP  RH WIND       PRES   REMARKS
ALBERTVILLE    SUNNY     46  46 100 CALM      30.09S
FORT PAYNE     SUNNY     43  41  93 CALM      30.11R
SCOTTSBORO AP  FOG       46  46 100 N3        30.13R VSB 1/4
SCOTTSBORO HCN   N/A     46 N/A N/A MISG        N/A
VALLEY HEAD      N/A     41 N/A N/A MISG        N/A
$$

TNZ076-096-097-201400-
SOUTHEASTERN MIDDLE TENNESSEE

CITY           SKY/WX    TMP DP  RH WIND       PRES   REMARKS
TULLAHOMA      SUNNY     43  39  87 CALM      30.11S
WINCHESTER     SUNNY     46  45  93 CALM      30.12R
$$

...SURROUNDING SITES...

CITY           SKY/WX    TMP DP  RH WIND       PRES   REMARKS
ATLANTA        MOSUNNY   56  50  80 CALM      30.11R
ANNISTON       SUNNY     48  46  93 E3        30.12R
BIRMINGHAM     MOSUNNY   51  49  92 CALM      30.11S
CHATTANOOGA    MOSUNNY   47  44  90 CALM      30.13R
CORINTH          N/A     43  43 100 CALM        N/A
DALTON         MOSUNNY   43  43 100 CALM      30.13R
GADSDEN        CLOUDY    45  43  93 CALM      30.12S VSB<1/4
GOLDEN TRNGL   FOG       45  41  87 CALM      30.10R VSB 3/4
HALEYVILLE     FAIR      43  43 100 CALM      30.13R
JACKSON TN     LGT RAIN  50  47  89 CALM      30.09R
MEMPHIS        PTCLDY    50  48  93 CALM      30.08S
NASHVILLE      MOSUNNY   46  45  96 S5        30.09F
OXFORD MS      FAIR      43  41  93 CALM      30.11S
ROME           SUNNY     44  43  96 CALM      30.12R
SAVANNAH       SUNNY     43  43 100 CALM      30.10R
TUPELO         SUNNY     46  43  89 CALM      30.10R
TUSCALOOSA     SUNNY     49  46  90 CALM      30.10S
$$

...GULF COAST WEATHER...

CITY           SKY/WX    TMP DP  RH WIND       PRES   REMARKS
GULFPORT       SUNNY     55  49  80 N5        30.06R
PASCAGOULA     SUNNY     52  49  89 N3        30.06R
MOBILE         MOSUNNY   56  52  86 NE3       30.07R
GULF SHORES    SUNNY     55  51  87 CALM      30.05R
PENSACOLA      MOSUNNY   57  54  89 N3        30.05R
DESTIN         SUNNY     65  61  87 NE3       30.05R
PANAMA CITY    MOSUNNY   60  58  91 NE7       30.06R
APPALACHICOLA  MOSUNNY   66  61  84 NE7       30.04R
$$



USA.gov is the U.S. government's official web portal to all federal, state and local government web resources and services.